Tracking 19489 objects as of 22-Jan-2019
HD Live streaming from Space Station
objects crossing your sky now

TIROS 4

Track TIROS 4 now!
10-day predictions
TIROS 4 is classified as:


NORAD ID: 226
Int'l Code: 1962-002A
Perigee: 691.0 km
Apogee: 803.1 km
Inclination: 48.3 °
Period: 99.6 minutes
Semi major axis: 7118 km
RCS: 0.8251 m2 (medium)
Launch date: February 8, 1962
Source: United States (US)
Launch site: AIR FORCE EASTERN TEST RANGE (AFETR)
aabbcc
Your satellite tracking list
Your tracking list is empty




NASA's NSSDC Master Catalog

Two Line Element Set (TLE):
1   226U 62002A   19022.19053418 -.00000152  00000-0  56302-5 0  9995
2   226  48.2979 345.7050 0078739 290.5194  68.7268 14.45639666998125
Source of the keplerian elements: AFSPC